Weather History for Newport, AR

Change the Weather History Date:

Friday, October 5, 2012

  Actual Average (KJBR) Record (KJBR)
Temperature  
Mean Temperature 62 °F 65 °F  
Max Temperature 77 °F 77 °F 95 °F (1938)
Min Temperature 46 °F 53 °F 37 °F (1999)
Degree Days  
Heating Degree Days 4 3  
Month to date heating degree days 14  
Since 1 July heating degree days 32  
Cooling Degree Days 0 3  
Month to date cooling degree days 16  
Year to date cooling degree days 1787  
Growing Degree Days 12 (Base 50)    
Moisture  
Dew Point 56 °F    
Average Humidity 90    
Maximum Humidity 100    
Minimum Humidity 58    
Precipitation  
Precipitation 0.57 in 0.13 in 2.80 in (1929)
Month to date precipitation 0.73  
Year to date precipitation 34.90  
Snow  
Snow 0.00 in - 0.00 in (2002)
Month to date snowfall  
Since 1 July snowfall  
Since 1 September snowfall  
Snow Depth -    
Sea Level Pressure  
Sea Level Pressure 30.08 in    
Wind  
Wind Speed 10 mph (North)    
Max Wind Speed 24 mph    
Max Gust Speed 36 mph    
Visibility 8 miles    
Events Rain , Thunderstorm    
T = Trace of Precipitation, MM = Missing Value Source: NWS Daily Summary

Daily Weather History Graph

Daily Weather History Graph

Search for Another Location

Airport:

Trip Planner

Search our weather history database for the weather conditions in past years. The results will help you decide how hot, cold, wet, or windy it might be!

Date:

Astronomy

Oct. 05, 2012 Rise Set
Actual Time 7:03 AM CDT 6:42 PM CDT
Civil Twilight 6:37 AM CDT 7:07 PM CDT
Nautical Twilight 6:08 AM CDT 7:37 PM CDT
Astronomical Twilight 5:38 AM CDT 8:06 PM CDT
Moon 10:15 PM CDT (10/5) 12:01 PM CDT (10/5)
Length of Visible Light 12h 29m
Length of Day
11h 38m
Waning Gibbous, 74% of the Moon is Illuminated
Oct 5
Waning Gibbous
Oct 8
Last Quarter
Oct 15
New
Oct 21
First Quarter
Oct 29
Full

Hourly Weather History & Observations

Time (CDT) Temp. Windchill Dew Point Humidity Pressure Visibility Wind Dir Wind Speed Gust Speed Precip Events Conditions
12:56 AM 59.0 °F - 55.9 °F 90% 30.15 in 10.0 mi South 8.1 mph - N/A   Clear
1:56 AM 59.0 °F - 55.9 °F 90% 30.14 in 10.0 mi South 5.8 mph - N/A   Clear
2:56 AM 57.9 °F - 55.9 °F 93% 30.14 in 10.0 mi SSE 3.5 mph - N/A   Clear
3:56 AM 59.0 °F - 56.8 °F 93% 30.13 in 10.0 mi South 8.1 mph - N/A   Clear
4:56 AM 59.0 °F - 57.9 °F 96% 30.10 in 9.0 mi SSE 9.2 mph - N/A   Clear
5:56 AM 59.0 °F - 56.8 °F 93% 30.10 in 9.0 mi South 8.1 mph - N/A   Clear
6:56 AM 56.8 °F - 55.9 °F 97% 30.12 in 7.0 mi NNW 6.9 mph - N/A   Clear
7:56 AM 57.9 °F - 57.9 °F 100% 30.12 in 5.0 mi East 4.6 mph - N/A   Clear
8:56 AM 66.9 °F - 61.0 °F 81% 30.12 in 10.0 mi Calm Calm - N/A   Mostly Cloudy
9:56 AM 72.0 °F - 61.9 °F 70% 30.10 in 10.0 mi SSE 6.9 mph - N/A   Clear
10:56 AM 77.9 °F - 61.9 °F 58% 30.09 in 10.0 mi SSW 16.1 mph - N/A   Scattered Clouds
11:56 AM 77.9 °F - 63.9 °F 62% 30.07 in 10.0 mi South 11.5 mph - N/A   Scattered Clouds
12:56 PM 77.0 °F - 63.9 °F 64% 30.04 in 10.0 mi SSW 10.4 mph - N/A   Clear
1:56 PM 74.8 °F - 63.9 °F 69% 30.03 in 6.0 mi SW 4.6 mph - N/A   Haze
2:56 PM 72.0 °F - 65.8 °F 81% 29.97 in 10.0 mi SSE 6.9 mph - 0.00 in   Mostly Cloudy
3:20 PM 73.4 °F - 64.4 °F 73% 29.97 in 5.0 mi South 5.8 mph - N/A Thunderstorm Haze
3:36 PM 69.8 °F - 64.4 °F 83% 30.01 in 5.0 mi NW 23.0 mph 35.7 mph 0.00 in Rain , Thunderstorm Light Thunderstorms and Rain
3:44 PM 66.2 °F - 64.4 °F 94% 29.98 in 1.8 mi NE 6.9 mph - 0.15 in Rain , Thunderstorm Heavy Thunderstorms and Rain
3:47 PM 66.2 °F - 64.4 °F 94% 29.98 in 1.2 mi NNE 8.1 mph - 0.24 in Rain , Thunderstorm Heavy Thunderstorms and Rain
3:56 PM 65.8 °F - 64.9 °F 97% 29.98 in 4.0 mi NNW 3.5 mph - 0.25 in Rain , Thunderstorm Light Thunderstorms and Rain
4:31 PM 66.2 °F - 66.2 °F 100% 29.97 in 5.0 mi North 18.4 mph 21.9 mph 0.00 in   Mostly Cloudy
4:56 PM 61.0 °F - 59.9 °F 96% 29.98 in 10.0 mi North 15.0 mph - 0.00 in   Overcast
5:03 PM 60.8 °F - 59.0 °F 94% 29.97 in 10.0 mi North 13.8 mph 20.7 mph N/A   Overcast
5:14 PM 60.8 °F - 57.2 °F 88% 30.00 in 10.0 mi North 13.8 mph 23.0 mph 0.00 in Rain , Thunderstorm Light Thunderstorms and Rain
5:29 PM 59.0 °F - 57.2 °F 94% 30.03 in 2.0 mi NNW 18.4 mph - 0.01 in Rain , Thunderstorm Thunderstorms and Rain
5:39 PM 57.2 °F - 55.4 °F 94% 30.05 in 5.0 mi NNW 24.2 mph - 0.03 in Rain , Thunderstorm Light Thunderstorms and Rain
5:56 PM 55.9 °F - 54.9 °F 96% 30.05 in 10.0 mi North 24.2 mph 31.1 mph 0.04 in Rain , Thunderstorm Light Thunderstorms and Rain
6:09 PM 55.4 °F - 53.6 °F 94% 30.06 in 10.0 mi North 18.4 mph 25.3 mph 0.01 in Rain , Thunderstorm Light Thunderstorms and Rain
6:19 PM 53.6 °F - 51.8 °F 94% 30.08 in 9.0 mi North 19.6 mph 27.6 mph 0.03 in Rain , Thunderstorm Rain
6:27 PM 53.6 °F - 51.8 °F 94% 30.08 in 7.0 mi North 15.0 mph 26.5 mph 0.04 in Rain Rain
6:35 PM 51.8 °F - 51.8 °F 100% 30.11 in 9.0 mi NNW 19.6 mph 23.0 mph 0.05 in Rain , Thunderstorm Light Thunderstorms and Rain
6:56 PM 52.0 °F - 50.9 °F 96% 30.10 in 6.0 mi North 16.1 mph - 0.17 in Rain , Thunderstorm Light Thunderstorms and Rain
7:04 PM 51.8 °F - 51.8 °F 100% 30.09 in 10.0 mi North 12.7 mph - 0.01 in Rain Light Rain
7:56 PM 50.0 °F - 48.9 °F 96% 30.13 in 10.0 mi North 12.7 mph - 0.05 in Rain Light Rain
8:38 PM 48.2 °F - 46.4 °F 93% 30.16 in 10.0 mi North 19.6 mph - 0.05 in Rain Light Rain
8:56 PM 47.8 °F - 45.9 °F 93% 30.17 in 10.0 mi North 17.3 mph 24.2 mph 0.05 in Rain Light Rain
9:34 PM 48.2 °F - 46.4 °F 93% 30.18 in 10.0 mi North 12.7 mph - 0.00 in Rain Light Rain
9:43 PM 46.4 °F 40.1 °F 46.4 °F 100% 30.19 in 10.0 mi North 15.0 mph - 0.00 in Rain Light Rain
9:56 PM 46.9 °F - 45.9 °F 96% 30.19 in 10.0 mi North 11.5 mph - 0.00 in   Overcast
10:56 PM 46.9 °F - 43.9 °F 89% 30.19 in 10.0 mi North 10.4 mph - 0.01 in   Mostly Cloudy
11:06 PM 46.4 °F 40.7 °F 44.6 °F 93% 30.19 in 10.0 mi North 12.7 mph 17.3 mph N/A   Overcast
11:56 PM 46.9 °F - 43.9 °F 89% 30.20 in 10.0 mi North 12.7 mph 18.4 mph 0.00 in   Overcast